| time (UTC) | temp C | wind direction | speed KPH | gust KPH | rain 1hr cm | rain 24hr cm | rain mn cm | humidity % | barometer mb |
| 20260507161055 | 13 | 111 | 6.4 | 9.7 | 0.00 | 0.00 | 0.00 | 67 | 1016.3 |
| 20260507160057 | 13 | 86 | 4.8 | 9.7 | 0.00 | 0.00 | 0.00 | 64 | 1016.3 |
| 20260507155056 | 13 | 24 | 3.2 | 9.7 | 0.00 | 0.00 | 0.00 | 63 | 1016.3 |
| 20260507153100 | 13 | 28 | 4.8 | 9.7 | 0.00 | 0.00 | 0.00 | 59 | 1016.3 |
| 20260507151058 | 13 | 119 | 3.2 | 11.3 | 0.00 | 0.00 | 0.00 | 61 | 1016.3 |
| 20260507150054 | 13 | 57 | 4.8 | 9.7 | 0.00 | 0.00 | 0.00 | 59 | 1016.3 |
| 20260507145102 | 13 | 54 | 4.8 | 12.9 | 0.00 | 0.00 | 0.00 | 60 | 1016.4 |
| 20260507144054 | 13 | 48 | 4.8 | 9.7 | 0.00 | 0.00 | 0.00 | 63 | 1016.3 |
| 20260507143059 | 13 | 76 | 6.4 | 12.9 | 0.00 | 0.00 | 0.00 | 67 | 1016.4 |
| 20260507142053 | 13 | 33 | 4.8 | 12.9 | 0.00 | 0.00 | 0.00 | 63 | 1016.5 |
| 20260507133102 | 13 | 294 | 3.2 | 6.4 | 0.00 | 0.00 | 0.00 | 66 | 1016.6 |
| 20260507132050 | 13 | 50 | 3.2 | 6.4 | 0.00 | 0.00 | 0.00 | 66 | 1016.6 |
| 20260507131059 | 13 | 11 | 1.6 | 4.8 | 0.00 | 0.00 | 0.00 | 63 | 1016.7 |
| 20260507125059 | 12 | 86 | 6.4 | 12.9 | 0.00 | 0.00 | 0.00 | 68 | 1016.7 |
| 20260507124059 | 12 | 125 | 4.8 | 8.0 | 0.00 | 0.00 | 0.00 | 68 | 1016.7 |
| 20260507123102 | 12 | 119 | 4.8 | 8.0 | 0.00 | 0.00 | 0.00 | 70 | 1016.7 |
| 20260507122056 | 12 | 88 | 4.8 | 9.7 | 0.00 | 0.00 | 0.00 | 71 | 1016.7 |
| 20260507121051 | 12 | 71 | 3.2 | 6.4 | 0.00 | 0.00 | 0.00 | 69 | 1016.6 |
| 20260507120100 | 12 | 19 | 3.2 | 6.4 | 0.00 | 0.00 | 0.00 | 68 | 1016.6 |
| 20260507115056 | 12 | 0 | 3.2 | 8.0 | 0.00 | 0.00 | 0.00 | 67 | 1016.6 |
| 20260507114055 | 12 | 351 | 8.0 | 11.3 | 0.00 | 0.00 | 0.00 | 68 | 1016.6 |
| 20260507113057 | 12 | 351 | 6.4 | 9.7 | 0.00 | 0.00 | 0.00 | 69 | 1016.5 |
| 20260507112101 | 12 | 330 | 6.4 | 9.7 | 0.00 | 0.00 | 0.00 | 68 | 1016.6 |
| 20260507111058 | 12 | 334 | 8.0 | 11.3 | 0.00 | 0.00 | 0.00 | 67 | 1016.6 |
| 20260507105100 | 12 | 97 | 4.8 | 8.0 | 0.00 | 0.00 | 0.00 | 71 | 1016.5 |
| 20260507104057 | 12 | 186 | 1.6 | 6.4 | 0.00 | 0.00 | 0.00 | 71 | 1016.5 |
| 20260507102057 | 11 | 351 | 4.8 | 9.7 | 0.00 | 0.00 | 0.00 | 71 | 1016.7 |
| 20260507101100 | 11 | 355 | 6.4 | 11.3 | 0.00 | 0.00 | 0.00 | 72 | 1016.6 |
| 20260507100100 | 11 | 318 | 8.0 | 11.3 | 0.00 | 0.00 | 0.00 | 72 | 1016.5 |
| 20260507095055 | 11 | 333 | 8.0 | 9.7 | 0.00 | 0.00 | 0.00 | 72 | 1016.5 |
| 20260507094056 | 11 | 304 | 8.0 | 11.3 | 0.00 | 0.03 | 0.00 | 73 | 1016.4 |
| 20260507093057 | 11 | 350 | 8.0 | 12.9 | 0.00 | 0.03 | 0.00 | 72 | 1016.4 |
| 20260507092100 | 11 | 338 | 8.0 | 12.9 | 0.00 | 0.05 | 0.00 | 73 | 1016.3 |
| 20260507091056 | 11 | 318 | 6.4 | 17.7 | 0.00 | 0.05 | 0.00 | 75 | 1016.4 |
| 20260507090058 | 11 | 311 | 4.8 | 11.3 | 0.00 | 0.05 | 0.00 | 75 | 1016.4 |
| 20260507085059 | 10 | 332 | 4.8 | 9.7 | 0.00 | 0.08 | 0.00 | 75 | 1016.4 |
| 20260507084059 | 10 | 325 | 4.8 | 9.7 | 0.00 | 0.10 | 0.00 | 77 | 1016.4 |
| 20260507083102 | 10 | 306 | 6.4 | 11.3 | 0.00 | 0.10 | 0.00 | 79 | 1016.3 |
| 20260507082057 | 10 | 297 | 6.4 | 11.3 | 0.00 | 0.10 | 0.00 | 80 | 1016.2 |
| 20260507081102 | 10 | 299 | 6.4 | 11.3 | 0.00 | 0.13 | 0.00 | 81 | 1016.2 |
| 20260507075101 | 10 | 299 | 6.4 | 9.7 | 0.00 | 0.15 | 0.00 | 84 | 1016.1 |
| 20260507074100 | 10 | 320 | 3.2 | 6.4 | 0.00 | 0.15 | 0.00 | 84 | 1016.1 |
| 20260507072058 | 9 | 298 | 3.2 | 6.4 | 0.00 | 0.18 | 0.00 | 84 | 1016.0 |
| 20260507071059 | 9 | 309 | 4.8 | 9.7 | 0.00 | 0.18 | 0.00 | 84 | 1016.0 |
| 20260507070057 | 8 | 346 | 3.2 | 6.4 | 0.00 | 0.20 | 0.00 | 84 | 1015.9 |
| 20260507065055 | 8 | 318 | 3.2 | 6.4 | 0.00 | 0.20 | 0.00 | 86 | 1015.9 |
| 20260507064057 | 8 | 307 | 3.2 | 6.4 | 0.00 | 0.20 | 0.00 | 86 | 1015.9 |
| 20260507063054 | 8 | 306 | 1.6 | 3.2 | 0.00 | 0.23 | 0.00 | 87 | 1015.7 |
| 20260507062057 | 8 | 292 | 3.2 | 4.8 | 0.00 | 0.23 | 0.00 | 88 | 1015.7 |
| 20260507061058 | 8 | 280 | 3.2 | 4.8 | 0.00 | 0.23 | 0.00 | 90 | 1015.6 |
| 20260507060056 | 8 | 280 | 3.2 | 4.8 | 0.00 | 0.25 | 0.00 | 91 | 1015.5 |
| 20260507055052 | 7 | 284 | 3.2 | 4.8 | 0.00 | 0.28 | 0.00 | 92 | 1015.4 |
| 20260507053054 | 7 | 270 | 3.2 | 4.8 | 0.00 | 0.33 | 0.00 | 94 | 1015.3 |
| 20260507052057 | 7 | 257 | 3.2 | 4.8 | 0.00 | 0.38 | 0.00 | 95 | 1015.2 |
| 20260507051057 | 7 | 229 | 1.6 | 4.8 | 0.00 | 0.43 | 0.00 | 95 | 1015.1 |
| 20260507050056 | 7 | 257 | 3.2 | 4.8 | 0.00 | 0.43 | 0.00 | 95 | 1015.0 |
| 20260507045058 | 7 | 257 | 3.2 | 4.8 | 0.00 | 0.48 | 0.00 | 95 | 1014.9 |
| 20260507044058 | 7 | 249 | 4.8 | 6.4 | 0.00 | 0.51 | 0.00 | 95 | 1014.8 |
| 20260507043058 | 7 | 250 | 3.2 | 4.8 | 0.00 | 0.51 | 0.00 | 94 | 1014.7 |
| 20260507042059 | 7 | 277 | 0.0 | 0.0 | 0.00 | 0.53 | 0.00 | 95 | 1014.7 |
| 20260507041055 | 7 | 286 | 0.0 | 0.0 | 0.00 | 0.56 | 0.00 | 95 | 1014.6 |
| 20260507040058 | 7 | 302 | 1.6 | 3.2 | 0.00 | 0.58 | 0.00 | 95 | 1014.5 |
| 20260507035057 | 7 | 300 | 3.2 | 4.8 | 0.00 | 0.58 | 0.00 | 95 | 1014.5 |
| 20260507034056 | 7 | 247 | 3.2 | 4.8 | 0.00 | 0.61 | 0.00 | 94 | 1014.5 |
| 20260507033056 | 7 | 233 | 3.2 | 4.8 | 0.00 | 0.61 | 0.00 | 94 | 1014.5 |
| 20260507032058 | 7 | 240 | 3.2 | 4.8 | 0.00 | 0.61 | 0.00 | 94 | 1014.4 |
| 20260507031056 | 7 | 238 | 4.8 | 4.8 | 0.00 | 0.61 | 0.00 | 94 | 1014.3 |
| 20260507030056 | 7 | 231 | 3.2 | 4.8 | 0.00 | 0.64 | 0.00 | 93 | 1014.3 |
| 20260507025055 | 7 | 238 | 4.8 | 6.4 | 0.00 | 0.64 | 0.00 | 92 | 1014.2 |
| 20260507024055 | 7 | 265 | 4.8 | 6.4 | 0.00 | 0.64 | 0.00 | 91 | 1014.2 |
| 20260507023054 | 7 | 18 | 1.6 | 4.8 | 0.00 | 0.66 | 0.00 | 90 | 1014.2 |
| 20260507022057 | 7 | 5 | 3.2 | 4.8 | 0.00 | 0.66 | 0.00 | 91 | 1014.1 |
| 20260507021058 | 7 | 30 | 3.2 | 4.8 | 0.00 | 0.69 | 0.00 | 91 | 1014.0 |
| 20260507020057 | 7 | 30 | 4.8 | 8.0 | 0.00 | 0.71 | 0.00 | 91 | 1013.9 |
| 20260507015055 | 7 | 45 | 6.4 | 9.7 | 0.00 | 0.71 | 0.00 | 91 | 1013.8 |
| 20260507014057 | 7 | 48 | 8.0 | 11.3 | 0.00 | 0.71 | 0.00 | 91 | 1013.9 |
| 20260507013054 | 7 | 49 | 9.7 | 12.9 | 0.00 | 0.71 | 0.00 | 92 | 1013.9 |
| 20260507012053 | 7 | 47 | 8.0 | 12.9 | 0.00 | 0.74 | 0.00 | 93 | 1013.9 |
| 20260507011059 | 7 | 24 | 6.4 | 12.9 | 0.00 | 0.74 | 0.00 | 93 | 1013.9 |
| 20260507010100 | 7 | 4 | 6.4 | 9.7 | 0.00 | 0.76 | 0.00 | 94 | 1013.8 |
| 20260507005056 | 7 | 355 | 4.8 | 8.0 | 0.00 | 0.76 | 0.00 | 94 | 1013.8 |
| 20260507004058 | 7 | 340 | 4.8 | 6.4 | 0.00 | 0.79 | 0.00 | 94 | 1013.8 |
| 20260507003056 | 7 | 346 | 4.8 | 6.4 | 0.00 | 0.79 | 0.00 | 94 | 1013.7 |
| 20260507002057 | 7 | 348 | 4.8 | 6.4 | 0.00 | 0.84 | 0.00 | 94 | 1013.7 |
| 20260506235107 | 7 | 350 | 3.2 | 4.8 | 0.00 | 0.89 | 0.00 | 93 | 1013.6 |
| 20260506234106 | 7 | 357 | 3.2 | 4.8 | 0.00 | 0.91 | 0.00 | 93 | 1013.5 |
| 20260506233106 | 7 | 20 | 3.2 | 4.8 | 0.00 | 0.94 | 0.00 | 93 | 1013.4 |
| 20260506232105 | 7 | 9 | 4.8 | 8.0 | 0.00 | 0.97 | 0.00 | 93 | 1013.4 |
| 20260506231107 | 7 | 24 | 4.8 | 8.0 | 0.00 | 0.99 | 0.00 | 93 | 1013.4 |
| 20260506230107 | 7 | 355 | 4.8 | 6.4 | 0.00 | 0.99 | 0.00 | 92 | 1013.3 |
| 20260506225105 | 7 | 342 | 4.8 | 6.4 | 0.00 | 1.02 | 0.00 | 92 | 1013.3 |
| 20260506224107 | 7 | 337 | 4.8 | 6.4 | 0.00 | 1.07 | 0.00 | 92 | 1013.2 |
| 20260506223106 | 7 | 338 | 4.8 | 6.4 | 0.00 | 1.09 | 0.00 | 92 | 1013.1 |
| 20260506221105 | 7 | 337 | 8.0 | 9.7 | 0.00 | 1.09 | 0.00 | 91 | 1013.0 |
| 20260506220116 | 7 | 338 | 8.0 | 9.7 | 0.00 | 1.12 | 0.00 | 90 | 1012.9 |
| 20260506214112 | 7 | 331 | 8.0 | 11.3 | 0.00 | 1.17 | 1.12 | 88 | 1012.7 |
| 20260506213111 | 7 | 331 | 6.4 | 9.7 | 0.00 | 1.17 | 1.12 | 87 | 1012.7 |
| 20260506212114 | 7 | 358 | 4.8 | 9.7 | 0.00 | 1.19 | 1.12 | 86 | 1012.6 |
| 20260506211114 | 7 | 12 | 8.0 | 12.9 | 0.00 | 1.22 | 1.12 | 85 | 1012.5 |
| 20260506210113 | 7 | 14 | 9.7 | 17.7 | 0.00 | 1.24 | 1.12 | 85 | 1012.4 |
| 20260506205109 | 7 | 13 | 9.7 | 16.1 | 0.00 | 1.27 | 1.12 | 84 | 1012.3 |
| 20260506203111 | 8 | 6 | 9.7 | 14.5 | 0.00 | 1.30 | 1.12 | 82 | 1012.2 |
| 20260506202114 | 8 | 6 | 6.4 | 12.9 | 0.00 | 1.30 | 1.12 | 82 | 1012.1 |
| 20260506200112 | 8 | 20 | 6.4 | 9.7 | 0.00 | 1.35 | 1.12 | 80 | 1012.0 |
| 20260506195112 | 8 | 30 | 6.4 | 9.7 | 0.00 | 1.37 | 1.12 | 80 | 1011.8 |
| 20260506194113 | 9 | 19 | 8.0 | 12.9 | 0.00 | 1.37 | 1.12 | 79 | 1011.7 |
| 20260506193117 | 10 | 11 | 8.0 | 12.9 | 0.00 | 1.40 | 1.12 | 78 | 1011.6 |
| 20260506192113 | 10 | 23 | 6.4 | 11.3 | 0.00 | 1.42 | 1.12 | 80 | 1011.4 |
| 20260506191111 | 10 | 18 | 6.4 | 11.3 | 0.00 | 1.42 | 1.12 | 79 | 1011.4 |
| 20260506190112 | 10 | 22 | 6.4 | 9.7 | 0.00 | 1.45 | 1.12 | 78 | 1011.2 |
| 20260506185112 | 10 | 19 | 6.4 | 12.9 | 0.00 | 1.45 | 1.12 | 78 | 1011.1 |
| 20260506184104 | 10 | 23 | 6.4 | 9.7 | 0.00 | 1.47 | 1.12 | 78 | 1011.0 |
| 20260506183110 | 10 | 48 | 4.8 | 9.7 | 0.00 | 1.47 | 1.12 | 79 | 1010.9 |
| 20260506182113 | 10 | 45 | 6.4 | 9.7 | 0.00 | 1.50 | 1.12 | 79 | 1010.8 |
| 20260506181102 | 11 | 41 | 8.0 | 14.5 | 0.00 | 1.52 | 1.12 | 79 | 1010.6 |
| 20260506180111 | 11 | 36 | 8.0 | 14.5 | 0.00 | 1.55 | 1.12 | 78 | 1010.5 |
| 20260506175110 | 11 | 17 | 6.4 | 11.3 | 0.00 | 1.55 | 1.12 | 78 | 1010.3 |
| 20260506174106 | 11 | 12 | 6.4 | 14.5 | 0.00 | 1.57 | 1.12 | 79 | 1010.2 |
| 20260506173105 | 11 | 11 | 4.8 | 9.7 | 0.00 | 1.60 | 1.12 | 79 | 1010.1 |
| 20260506172110 | 11 | 8 | 4.8 | 6.4 | 0.00 | 1.60 | 1.12 | 80 | 1010.1 |
| 20260506171105 | 11 | 14 | 3.2 | 4.8 | 0.00 | 1.63 | 1.12 | 79 | 1009.9 |
| 20260506170100 | 11 | 23 | 6.4 | 9.7 | 0.00 | 1.65 | 1.12 | 80 | 1009.9 |
| 20260506165103 | 11 | 6 | 6.4 | 9.7 | 0.00 | 1.65 | 1.12 | 79 | 1009.9 |
| 20260506164058 | 11 | 314 | 9.7 | 14.5 | 0.00 | 1.65 | 1.12 | 79 | 1009.7 |
| 20260506163033 | 11 | 316 | 9.7 | 14.5 | 0.00 | 1.65 | 1.12 | 78 | 1009.7 |
| 20260506162104 | 11 | 316 | 11.3 | 16.1 | 0.00 | 1.65 | 1.12 | 78 | 1009.8 |